Location: Gälforsberget
(66.6500°N, 22.4167°E)
Time: 09:04:03
(UTC+00:00)

Cosmos 2251 Rocket - Pass Details

Date: 11 April 2026
Orbit: 760 x 788 km, 74.0° (Epoch: 19 May)

Event Time Altitude Azimuth Distance (km) Brightness Sun altitude
Rises 21:10:58 0° 314° (NW) 3,258 8.0 -13.4°
Reaches altitude 10° 21:13:21 10° 316° (NW) 2,332 7.1 -13.5°
Maximum altitude 21:18:40 78° 43° (NE) 802 3.6 -13.6°
Enters shadow 21:23:09 15° 130° (SE) 2,018 5.2 -13.8°
